Portada
METAR-TAF:

METAR-TAF

Aeroports :

Virginia Highlands Airport

Abingdon, Virgínia, Estats Units d'Amèrica

latitud: 36-41N, longitud: 082-02W, altitud: 631 m

Observació

L'informe es va fer fa 24 minuts, a les 10:55 UTC
Vent calma
Temperatura 16°C
Humitat 94%
Pressió 1021 hPa
Visibilitat: 16.1 km
Cel clar

METAR: KVJI 291055Z AUTO 00000KT 10SM CLR 16/15 A3014 RMK AO2 T01620146

Hora: 07:19 (11:19 UTC)


TAF: manca

Observacions i pronòstics meteorològics de més de 4000 aeroports (METAR i TAF).

Les estacions disponibles són els punts grocs i vermells al mapa.

Posi el ratolí al punt desitjat per veure el nom de l'estació.

Feu clic per veure les observacions i els pronòstics meteorològics.

Per canviar el mapa: feu clic els botons verds amb una creu de color negre per apropar; al botó verd amb un guió per allunyar la imatge; o en les fletxes verdes per a mapes adjacents.


METAR-TAF: